Regional Weather Roundup
Issued by NWS Binghamton, NY

Home | Current Version | Previous Version | Text Only | Print | Product List | Glossary On
Versions: 1 2 3 4 5 6 7 8 9 10 11 12 13 14 15 16 17 18 19 20 21 22 23 24 25 26 27 28 29 30 31 32 33 34 35 36 37 38 39 40 41 42 43 44 45 46 47 48 49 50
000
ASUS41 KBGM 310710
RWRBGM
RWRBGM
BINGHAMTON REGIONAL WEATHER ROUNDUP
NATIONAL WEATHER SERVICE BINGHAMTON NY
300 AM EDT THU JUL 31 2014

Note: "fair" indicates few or no clouds below 12,000 feet with no
significant weather and/or obstructions to visibility.

* = Station(s) that does not report precipitation, such as rain,
snow, etc, also no thunder or fog.

!NYZ009-015>018-022>025-036-037-044>046-055>057-062-310800
...CENTRAL NEW YORK...

CITY           SKY/WX    TMP DP  RH WIND       PRES   REMARKS
BINGHAMTON     CLEAR     56  53  90 SW8       30.04F
CORTLAND       FAIR      52  52 100 CALM      30.04F FOG
DANSVILLE      PTCLDY    56  55  97 SE5       30.01S
ELMIRA         PTCLDY    50  50 100 CALM      30.03S FOG
ITHACA         CLEAR     55  53  93 CALM      30.03F
HAMILTON       SUNNY     55  54  94 SE3       30.03F
MONTICELLO     PTCLDY    57  54  88 CALM      30.08S
NORWICH        CLEAR     52  52 100 CALM      30.05S FOG
ONEONTA        CLEAR     55  52  88 CALM      30.05S
PENN YAN       CLEAR     59  56  89 SW5       30.01S
ROME           CLEAR     55  54  96 SE3       30.03S
SIDNEY         CLEAR     55  55 100 CALM      30.05S FOG
SYRACUSE       PTCLDY    57  55  93 E5        29.99F
$$

!PAZ038>040-043-044-047-048-072-310800
...NORTHEAST PENNSYLVANIA...

CITY           SKY/WX    TMP DP  RH WIND       PRES   REMARKS
HAZLETON       CLOUDY    57  55  94 CALM      30.10F
SCRANTON       MOCLDY    60  56  86 CALM      30.06F
TOWANDA*       PTCLDY    55  55 100 CALM      30.04F
$$
&&
KEY
WCI = WIND CHILL INDEX
VSB = VISIBILITY
HX  = HEAT INDEX
$$


USA.gov is the U.S. government's official web portal to all federal, state and local government web resources and services.